Regional Weather Roundup
Issued by NWS Jackson, KY

Home | Current Version | Previous Version | Graphics & Text | Print | Product List | Glossary On
Versions: 1 2 3 4 5 6 7 8 9 10 11 12 13 14 15 16 17 18 19 20 21 22 23 24 25 26 27 28 29 30 31 32 33 34 35 36 37 38 39 40 41 42 43 44 45 46 47 48 49 50
666
ASUS43 KJKL 301910
RWRJKL

EAST KENTUCKY HOURLY WEATHER ROUNDUP
NATIONAL WEATHER SERVICE JACKSON KY
300 PM EDT SAT JUL 30 2016

NOTE: "FAIR" INDICATES FEW OR NO CLOUDS BELOW 12,000 FEET WITH
NO SIGNIFICANT WEATHER AND/OR OBSTRUCTIONS TO VISIBILITY.

* THESE REPORTS ARE NOT UNDER NWS QUALITY CONTROL AND MAY NOT
  REPORT WEATHER SUCH AS PRECIPITATION AND FOG.

KYZ079-080-083-085-087-088-110-112-115-119-120-302000
...EASTERN KENTUCKY...

CITY           SKY/WX    TMP DP  RH WIND       PRES   REMARKS
JACKSON        SUNNY     84  71  65 VRB3      30.01F
LONDON         SUNNY     84  67  56 SW7       30.01F
SOMERSET*      MOSUNNY   81  70  69 SW9       30.02F
MONTICELLO*    MOSUNNY  N/A N/A N/A W15       30.03F
WILLIAMSBURG*  CLEAR     84  72  65 NE3       30.02F
MIDDLESBORO*   PTSUNNY   85  71  64 S5        30.01F HX  90
HARLAN APT*    MOCLDY    82  66  57 CALM      30.03F
PIKE CO APT*     N/A     82  71  70 W7        30.02F
BIG SANDY APT* PTCLDY    84  70  63 W6        30.00F
MOREHEAD APT*  PTCLDY    84  68  58 VRB7      30.00F
ASHLAND*       SUNNY     88  72  58 W6        29.94F HX  94
$$

KYZ035-036-041-042-044-050-067-078-099-302000
...CENTRAL KENTUCKY...

CITY           SKY/WX    TMP DP  RH WIND       PRES   REMARKS
MT STERLING*   MOSUNNY   84  70  61 W6        30.00F
FLEMING/MASON* PTSUNNY   83  68  61 NW7       29.99F
DANVILLE*      SUNNY     84  68  58 CALM      30.01F
LEXINGTON      PTSUNNY   85  68  56 W7        29.99F
FRANKFORT      MOSUNNY   85  70  60 SW8       29.97F
LOUISVILLE     TSTM      73  71  93 NW13      29.99R
LEBANON*         N/A     84  72  65 S8        29.99F
GLASGOW*       CLOUDY    83  70  65 S5        29.99F
BOWLING GREEN  MOSUNNY   85  71  63 SW7       29.98F HX  90
$$

KYZ091>093-OHZ055-061-077-WVZ005-015-034-035-042-302000
...SOUTHERN OHIO/WEST VIRGINIA...

CITY           SKY/WX    TMP DP  RH WIND       PRES   REMARKS
COVINGTON      PTSUNNY   85  68  56 W5        29.96F
COLUMBUS       MOSUNNY   83  68  60 SW9G20    29.93F
DAYTON         MOSUNNY   85  66  53 VRB7      29.96F
WILMINGTON     MOSUNNY   84  67  56 W5        29.96F
HUNTINGTON       N/A     85  70  60 SW6       29.96F
CHARLESTON     PTSUNNY   83  69  62 VRB5      29.97F
PINEVILLE*       N/A     83  67  57 MISG      30.08F
BECKLEY        PTSUNNY   78  67  68 W8        30.07F
BLUEFIELD      PTSUNNY   78  66  66 W13G21    30.10F
LOGAN CO APT*    N/A     81  72  74 CALM      30.01F
$$

VAZ002-007-008-TNZ017-027-036-066-071-302000
...SOUTHWEST VIRGINIA/EAST TENNESSEE...

CITY           SKY/WX    TMP DP  RH WIND       PRES   REMARKS
WISE*            N/A    N/A N/A N/A SW8       30.11F
JONESVILLE*    MOCLDY    82  70  65 CALM      30.05F
ABINGDON*        N/A     82  70  66 NW7       30.08F
BRISTOL        PTSUNNY   83  69  62 W6        30.05F
MORRISTOWN*    PTCLDY    84  70  61 VRB5      30.02F
SEVIERVILLE*     N/A     90  66  45 W7        30.00F HX  92
KNOXVILLE      PTSUNNY   86  70  58 W8        30.00F HX  90
OAK RIDGE      MOSUNNY   90  67  46 VRB3      30.01F HX  93
CROSSVILLE     PTSUNNY   82  68  62 W8        30.07F
NASHVILLE      CLOUDY    86  69  56 SW7       30.00F HX  90
$$

...KEY TO REMARKS...
VSB - VISIBILITY IN MILES
WCI - WIND CHILL INDEX
HX  - HEAT INDEX

$$




USA.gov is the U.S. government's official web portal to all federal, state and local government web resources and services.